SCP
0 0 0 0 0 0 0 0 0 0 0 0 -0 -0 -0 -0 -0 -0 -0 -0 -0 -0 -0 -0 0 0 0 0 -0 -0 -0 -0 0 0 0 -0 -0 -0 0 0 0 0 0
0 -0 0 0 0 -0 0 0 0 0 0 0 0 -0 -0 -0 -0 -0 -0 -0 -0 -0 -0 0 0 0 0 0 0 -0 -0 -0 0 0 0 0 -0 -0 0 0 -0 -0 -0
0 0 -0 0 -0 0 0 0 0 0 0 0 -0 -0 -0 -0 -0 -0 -0 -0 -0 -0 -0 0 0 0 0 0 0 -0 -0 0 0 0 0 -0 -0 0 0 0 -0 0 -0
0 0 0 0 -0 -0 -0 0 -0 0 0 0 -0 -0 -0 -0 -0 -0 -0 -0 -0 -0 0 0 0 0 0 0 0 0 0 -0 0 0 0 0 -0 -0 -0 -0 -0 -0 -0
-0 -0 0 -0 -0 -0 -0 0 0 0 0 0 -0 -0 -0 -0 -0 -0 -0 -0 -0 0 0 0 0 -0 0 0 0 0 0 0 -0 -0 0 0 0 -0 -0 0 0 0 0
0 0 0 0 0 0 0 0 0 0 0 0 0 0 0 -0 -0 -0 -0 -0 -0 -0 0 -0 -0 -0 -0 0 0 0 0 -0 -0 0 0 0 -0 -0 -0 -0 -0 -0 -0
0 0 0 0 0 0 0 0 0 0 0 0 0 0 0 -0 -0 -0 -0 -0 -0 -0 -0 -0 -0 -0 -0 0 0 0 0 -0 0 0 -0 -0 -0 -0 -0 -0 -0 -0 -0
0 0 0 0 0 0 0 0 0 0 0 -0 -0 -0 0 0 -0 -0 -0 -0 -0 -0 0 -0 -0 -0 -0 0 0 -0 -0 -0 0 0 -0 -0 -0 -0 -0 -0 -0 -0 -0
0 0 0 0 0 0 0 0 0 -0 -0 0 0 0 0 0 0 0 0 0 0 -0 -0 -0 -0 -0 -0 0 0 -0 -0 0 -0 0 0 0 -0 -0 -0 -0 -0 -0 -0
0 -0 0 0 0 0 0 0 -0 0 0 0 0 0 0 0 0 0 0 0 0 0 -0 0 0 0 -0 -0 -0 -0 -0 -0 -0 0 0 0 -0 -0 -0 -0 -0 -0 -0
-0 0 0 0 0 0 0 0 0 0 0 0 0 0 0 0 0 0 0 0 0 0 0 0 0 -0 -0 -0 -0 -0 -0 -0 0 0 0 -0 0 0 0 -0 0 -0 -0
0 0 -0 -0 0 0 0 0 -0 -0 -0 0 0 0 0 -0 -0 -0 0 0 0 0 0 0 0 0 0 0 0 -0 0 -0 -0 0 0 -0 -0 0 0 -0 0 0 0
-0 -0 -0 0 0 0 -0 0 0 -0 0 0 0 -0 0 -0 0 0 0 0 0 0 0 0 0 0 0 -0 -0 -0 -0 0 0 -0 -0 -0 -0 0 -0 -0 0 0 0
-0 0 0 -0 0 0 -0 0 -0 -0 0 0 0 0 0 -0 0 -0 -0 0 -0 -0 -0 -0 0 -0 -0 -0 -0 -0 -0 -0 -0 -0 0 -0 -0 0 -0 -0 0 0 0
-0 0 0 -0 -0 0 0 0 -0 -0 -0 -0 -0 -0 -0 0 -0 -0 -0 -0 -0 -0 -0 -0 -0 -0 0 -0 -0 -0 -0 -0 -0 -0 -0 -0 -0 0 0 0 -0 -0 -0
0 -0 0 -0 -0 0 0 0 -0 -0 -0 0 -0 0 0 0 -0 -0 0 -0 0 -0 -0 -0 -0 -0 -0 -0 -0 -0 -0 -0 -0 -0 -0 0 -0 -0 0 -0 -0 -0 -0
0 -0 -0 -0 -0 -0 0 0 0 0 0 -0 0 -0 0 0 0 0 0 0 -0 0 0 0 0 0 -0 0 0 0 0 0 -0 -0 -0 -0 -0 -0 -0 -0 -0 0 -0
-0 -0 -0 -0 -0 -0 -0 -0 0 -0 0 0 -0 0 0 0 0 0 -0 -0 0 0 0 0 0 -0 0 0 0 0 0 0 0 0 0 -0 -0 -0 0 -0 -0 -0 -0
-0 -0 -0 -0 -0 -0 -0 -0 -0 0 0 0 0 0 -0 0 -0 -0 0 -0 0 0 0 0 0 0 0 0 0 0 0 0 0 0 0 0 0 0 0 0 -0 0 0
-0 -0 -0 -0 -0 -0 0 0 0 0 0 0 0 -0 0 -0 -0 -0 0 0 0 0 0 0 0 0 0 0 0 0 0 0 0 0 0 0 0 -0 0 0 0 0 0
-0 -0 -0 -0 -0 -0 -0 -0 0 0 0 0 0 -0 -0 -0 0 0 0 0 0 -0 0 0 0 0 0 0 -0 0 0 0 0 -0 0 0 0 0 0 0 0 0 0
-0 -0 -0 -0 -0 -0 -0 0 -0 -0 -0 -0 0 0 0 0 0 0 0 0 0 0 0 0 0 0 0 0 0 0 0 0 0 0 0 0 0 0 0 0 0 0 0
-0 -0 -0 -0 -0 -0 -0 0 0 -0 0 0 0 0 0 0 0 0 0 -0 0 0 0 0 0 0 0 0 0 0 0 0 0 0 0 0 0 0 0 0 0 0 0
-0 -0 -0 -1 -0 -0 -0 -0 0 0 0 0 0 0 0 0 -0 0 -0 0 0 -0 0 0 0 0 0 0 0 0 0 0 0 0 0 0 0 0 0 0 0 0 0
-0 -0 -0 -0 -0 0 0 -0 0 -0 -0 -0 -0 -0 -0 -0 -0 -0 0 0 0 0 0 0 0 0 0 -0 0 0 0 0 0 0 0 0 0 0 0 0 0 0 0
-0 -0 -0 -0 0 0 0 0 -0 -0 -0 -0 -0 -0 -0 -0 0 0 0 0 0 0 0 0 0 0 0 0 0 0 0 0 0 0 0 0 0 0 0 0 0 0 0
Wind_Speed_500mb
32 39 46 50 55 52 53 53 52 50 49 50 49 44 37 33 32 30 28 27 27 26 26 26 25 25 26 24 23 19 17 17 19 26 31 28 19 21 19 20 20 12 7
37 43 46 49 46 53 55 51 49 49 49 47 45 40 34 31 28 28 26 24 24 24 22 22 22 26 25 23 21 19 16 14 19 33 23 28 25 22 22 19 24 11 16
42 48 50 47 46 46 47 49 47 47 46 44 40 35 32 28 25 24 22 20 20 20 18 19 22 24 23 22 20 18 15 13 17 33 24 12 21 19 20 17 11 15 19
45 39 38 42 42 41 42 44 43 44 44 40 34 31 26 22 19 19 19 17 18 17 18 20 21 22 21 21 19 17 16 15 17 22 19 13 8 18 17 18 18 21 20
41 36 36 41 40 38 41 43 39 40 40 35 30 26 19 14 14 15 17 16 18 18 19 20 19 20 19 19 17 16 15 16 14 17 17 13 13 13 16 21 18 19 25
39 34 39 37 35 35 36 37 35 36 35 32 27 19 14 13 12 13 14 16 17 15 16 18 19 17 15 16 17 16 15 15 13 15 15 13 4 12 16 20 19 18 19
37 30 32 32 33 33 33 35 33 32 32 28 21 16 16 12 10 11 11 14 13 11 15 17 18 17 14 15 16 17 14 17 10 4 13 10 2 9 16 17 18 17 19
34 33 30 33 32 33 35 34 33 32 29 24 21 20 13 8 8 7 11 14 12 11 14 15 16 16 14 13 16 19 21 16 11 6 8 11 3 9 13 14 13 16 13
35 35 29 30 34 35 38 35 32 29 27 24 21 15 10 5 2 5 9 12 12 12 11 13 13 14 14 13 16 19 25 27 16 9 9 6 5 7 10 11 13 13 18
42 32 31 29 29 28 37 35 28 26 23 19 16 13 9 3 6 8 12 10 12 10 10 13 10 14 14 18 17 19 20 17 11 8 10 7 6 2 5 8 11 14 16
34 37 33 30 30 28 25 27 27 24 20 16 14 10 7 3 9 9 14 18 12 11 8 12 12 20 20 23 24 24 21 23 6 5 6 13 10 3 2 5 12 11 15
37 35 34 37 33 30 25 26 21 17 14 13 10 16 5 10 10 10 16 14 13 10 7 17 18 16 17 16 14 24 16 13 17 6 7 13 15 7 3 7 8 12 13
33 34 36 35 33 30 30 18 17 16 18 14 19 17 10 8 10 13 17 9 11 16 15 14 14 16 13 9 11 14 15 16 11 23 13 18 22 10 7 7 11 13 15
36 37 36 30 33 31 29 23 20 20 18 17 16 21 16 12 10 10 11 5 10 8 14 16 12 16 13 14 14 14 13 11 9 6 18 24 20 9 8 7 13 10 15
40 38 37 37 37 33 26 23 25 22 20 19 17 19 15 15 15 11 12 13 13 13 21 11 17 14 15 17 16 12 14 14 15 10 13 24 20 11 8 10 9 17 15
41 40 38 36 34 32 30 24 24 22 21 20 20 18 20 17 18 19 15 14 14 16 20 12 13 17 14 16 18 15 21 17 17 17 12 21 21 13 12 14 14 12 15
42 40 39 38 35 34 33 30 27 24 21 24 22 21 22 27 22 20 15 16 17 22 23 19 16 14 14 13 15 17 18 16 15 14 11 8 18 19 9 12 15 13 14
43 43 42 36 36 36 33 31 27 26 25 23 21 23 23 25 24 17 19 15 19 15 21 20 11 11 18 14 18 16 15 12 11 10 5 7 8 11 19 15 12 18 15
47 45 44 42 39 38 36 31 29 29 29 28 23 25 25 22 25 19 19 22 24 22 24 16 8 12 15 16 16 14 10 8 8 2 4 5 2 3 6 14 18 22 19
47 45 45 44 43 41 40 43 34 32 26 24 24 28 33 34 25 22 20 29 19 19 15 7 9 16 16 10 12 9 5 2 2 2 4 5 5 3 2 4 13 8 13
48 48 46 47 48 44 42 37 32 30 30 29 28 26 30 27 23 31 19 15 19 12 10 12 15 13 9 6 12 7 8 2 2 3 2 2 5 3 1 6 8 6 12
54 51 50 49 51 48 39 36 38 32 26 28 26 32 28 25 23 20 13 16 21 10 20 12 9 5 8 6 8 6 6 10 8 7 3 6 5 3 2 4 3 16 3
59 59 57 57 54 52 46 34 41 30 31 20 28 24 23 22 24 23 22 21 15 18 12 14 4 7 5 7 9 5 6 6 4 7 7 1 6 2 4 6 3 2 13
62 59 58 58 59 51 50 42 42 34 31 27 24 21 20 20 23 22 21 18 21 10 15 6 6 7 4 3 5 1 6 6 10 9 9 5 1 2 3 1 6 7 4
61 60 58 62 60 56 51 48 42 37 30 25 24 22 30 26 25 23 21 19 16 11 16 13 8 8 6 6 4 3 2 3 4 7 12 6 5 6 5 8 7 6 13
65 63 61 64 65 61 58 51 53 41 41 30 29 24 20 21 21 25 24 24 17 15 15 9 12 11 12 14 9 7 4 4 2 7 14 14 12 16 11 13 13 12 13
Wind_Direction_500mb
117 123 131 133 136 138 140 136 130 127 125 126 124 118 116 109 105 100 94 90 87 81 78 65 53 46 41 37 40 49 59 66 61 52 53 43 52 65 81 114 108 113 115
125 128 130 132 136 138 138 135 132 128 127 127 124 122 117 107 102 96 92 86 80 75 66 55 43 39 38 34 39 45 51 64 68 57 51 45 38 57 93 131 90 127 127
129 131 129 131 133 136 137 133 129 131 130 131 129 125 112 104 94 91 88 83 74 64 53 44 32 30 32 31 42 46 47 54 73 74 61 93 354 46 94 125 132 140 121
135 131 129 130 131 138 140 137 134 133 134 135 133 126 121 106 90 88 80 72 60 48 42 36 26 20 21 31 28 40 49 56 87 84 40 73 67 29 96 97 118 109 116
140 136 142 133 130 134 140 142 136 139 141 139 136 135 129 108 91 78 71 60 42 33 34 26 18 18 14 24 31 26 38 51 66 103 88 97 73 39 97 103 110 114 117
138 145 144 140 136 136 136 140 143 143 141 144 142 142 133 124 97 80 63 41 26 29 26 16 12 17 18 24 34 33 35 53 53 71 104 93 127 65 101 124 132 131 138
142 147 148 144 145 144 143 145 144 144 151 153 152 145 135 114 92 74 43 20 25 30 13 11 16 19 28 27 32 41 44 66 72 110 138 130 305 84 98 110 132 127 134
141 147 158 147 147 148 145 144 147 151 152 153 153 149 137 106 83 48 12 8 17 13 10 16 21 27 34 31 26 36 45 51 21 76 103 148 71 85 106 118 126 140 140
143 146 145 146 151 154 154 151 147 144 147 154 160 158 156 140 80 9 7 12 5 7 8 11 19 21 33 34 23 26 51 57 81 16 31 153 48 80 109 123 137 144 145
148 147 147 151 148 152 167 166 152 153 156 162 166 175 170 150 350 5 329 345 340 342 359 5 14 22 33 35 24 22 49 48 44 354 355 339 342 110 108 134 146 158 162
149 154 157 155 156 158 166 174 177 175 177 172 175 181 163 250 338 334 314 303 319 317 343 0 18 46 40 24 15 36 27 28 326 90 319 337 337 10 158 171 162 164 178
161 163 158 167 165 161 167 184 176 189 191 186 203 263 210 230 249 244 271 315 318 338 6 9 20 32 26 2 5 356 360 346 315 99 258 317 319 320 279 218 199 190 191
170 165 169 185 157 169 173 178 179 194 196 213 214 220 242 246 251 290 331 313 326 348 309 5 334 350 9 319 318 328 326 336 334 325 352 321 308 291 251 224 222 211 208
171 172 175 174 176 179 181 182 192 198 204 217 232 237 205 252 256 256 264 265 276 268 325 275 304 311 298 313 317 316 319 317 300 292 306 305 304 286 235 234 215 214 213
179 180 184 185 187 190 185 195 205 204 212 221 227 249 216 251 244 281 276 275 288 308 281 316 290 298 307 299 283 311 310 307 302 294 276 296 308 273 254 226 227 223 219
184 186 187 190 193 191 198 202 209 211 225 223 232 236 265 227 261 262 290 283 288 281 267 278 295 271 292 294 341 326 304 302 294 290 271 289 306 309 269 250 237 239 233
190 190 192 194 199 201 205 216 212 220 227 233 224 236 245 251 255 245 260 262 278 277 278 279 271 320 339 331 304 304 304 306 302 292 288 262 284 302 308 276 252 242 240
195 195 195 200 204 208 210 217 215 226 227 226 241 239 237 251 248 254 272 272 274 275 296 267 296 310 313 298 301 308 307 315 304 319 336 262 259 268 297 289 281 268 256
200 200 199 200 203 207 212 215 221 226 226 239 233 244 260 263 257 255 261 264 261 261 262 291 289 305 303 303 300 301 308 316 330 34 12 39 5 357 255 248 295 287 260
203 202 203 204 204 207 213 213 212 222 233 236 246 241 245 245 242 246 256 252 262 276 283 262 290 292 299 305 300 273 286 308 354 31 46 48 19 46 330 311 298 281 282
203 204 205 205 211 206 213 216 213 222 229 229 241 239 265 265 234 241 240 269 281 263 261 307 295 297 316 289 286 254 226 137 131 145 46 346 11 0 12 9 14 50 257
204 205 206 207 208 211 214 209 216 220 230 239 244 233 238 243 254 266 243 241 267 262 283 270 288 286 295 271 318 279 234 167 186 131 19 4 16 19 16 6 341 199 274
206 206 208 209 210 210 204 214 215 215 223 220 232 247 257 231 232 237 229 208 233 246 272 293 291 280 291 304 313 323 280 84 138 174 140 310 27 16 42 30 118 357 184
209 209 209 212 210 212 213 206 218 213 221 226 229 227 213 213 215 227 221 230 233 213 226 268 275 193 262 286 322 73 292 345 323 151 204 215 221 357 323 98 332 327 65
210 209 210 211 212 206 214 204 217 209 216 213 212 216 213 231 201 209 212 215 232 205 227 202 231 219 226 229 243 258 282 272 337 328 308 137 307 234 294 325 278 269 309
211 210 209 209 213 209 206 217 203 216 207 209 210 214 212 206 209 204 204 214 216 198 215 227 232 226 202 207 197 222 237 275 287 303 294 296 303 287 266 287 287 282 276
Wind_Speed_850mb
32 39 46 50 55 52 53 53 52 50 49 50 49 44 37 33 32 30 28 27 27 26 26 26 25 25 26 24 23 19 17 17 19 26 31 28 19 21 19 20 20 12 7
37 43 46 49 46 53 55 51 49 49 49 47 45 40 34 31 28 28 26 24 24 24 22 22 22 26 25 23 21 19 16 14 19 33 23 28 25 22 22 19 24 11 16
42 48 50 47 46 46 47 49 47 47 46 44 40 35 32 28 25 24 22 20 20 20 18 19 22 24 23 22 20 18 15 13 17 33 24 12 21 19 20 17 11 15 19
45 39 38 42 42 41 42 44 43 44 44 40 34 31 26 22 19 19 19 17 18 17 18 20 21 22 21 21 19 17 16 15 17 22 19 13 8 18 17 18 18 21 20
41 36 36 41 40 38 41 43 39 40 40 35 30 26 19 14 14 15 17 16 18 18 19 20 19 20 19 19 17 16 15 16 14 17 17 13 13 13 16 21 18 19 25
39 34 39 37 35 35 36 37 35 36 35 32 27 19 14 13 12 13 14 16 17 15 16 18 19 17 15 16 17 16 15 15 13 15 15 13 4 12 16 20 19 18 19
37 30 32 32 33 33 33 35 33 32 32 28 21 16 16 12 10 11 11 14 13 11 15 17 18 17 14 15 16 17 14 17 10 4 13 10 2 9 16 17 18 17 19
34 33 30 33 32 33 35 34 33 32 29 24 21 20 13 8 8 7 11 14 12 11 14 15 16 16 14 13 16 19 21 16 11 6 8 11 3 9 13 14 13 16 13
35 35 29 30 34 35 38 35 32 29 27 24 21 15 10 5 2 5 9 12 12 12 11 13 13 14 14 13 16 19 25 27 16 9 9 6 5 7 10 11 13 13 18
42 32 31 29 29 28 37 35 28 26 23 19 16 13 9 3 6 8 12 10 12 10 10 13 10 14 14 18 17 19 20 17 11 8 10 7 6 2 5 8 11 14 16
34 37 33 30 30 28 25 27 27 24 20 16 14 10 7 3 9 9 14 18 12 11 8 12 12 20 20 23 24 24 21 23 6 5 6 13 10 3 2 5 12 11 15
37 35 34 37 33 30 25 26 21 17 14 13 10 16 5 10 10 10 16 14 13 10 7 17 18 16 17 16 14 24 16 13 17 6 7 13 15 7 3 7 8 12 13
33 34 36 35 33 30 30 18 17 16 18 14 19 17 10 8 10 13 17 9 11 16 15 14 14 16 13 9 11 14 15 16 11 23 13 18 22 10 7 7 11 13 15
36 37 36 30 33 31 29 23 20 20 18 17 16 21 16 12 10 10 11 5 10 8 14 16 12 16 13 14 14 14 13 11 9 6 18 24 20 9 8 7 13 10 15
40 38 37 37 37 33 26 23 25 22 20 19 17 19 15 15 15 11 12 13 13 13 21 11 17 14 15 17 16 12 14 14 15 10 13 24 20 11 8 10 9 17 15
41 40 38 36 34 32 30 24 24 22 21 20 20 18 20 17 18 19 15 14 14 16 20 12 13 17 14 16 18 15 21 17 17 17 12 21 21 13 12 14 14 12 15
42 40 39 38 35 34 33 30 27 24 21 24 22 21 22 27 22 20 15 16 17 22 23 19 16 14 14 13 15 17 18 16 15 14 11 8 18 19 9 12 15 13 14
43 43 42 36 36 36 33 31 27 26 25 23 21 23 23 25 24 17 19 15 19 15 21 20 11 11 18 14 18 16 15 12 11 10 5 7 8 11 19 15 12 18 15
47 45 44 42 39 38 36 31 29 29 29 28 23 25 25 22 25 19 19 22 24 22 24 16 8 12 15 16 16 14 10 8 8 2 4 5 2 3 6 14 18 22 19
47 45 45 44 43 41 40 43 34 32 26 24 24 28 33 34 25 22 20 29 19 19 15 7 9 16 16 10 12 9 5 2 2 2 4 5 5 3 2 4 13 8 13
48 48 46 47 48 44 42 37 32 30 30 29 28 26 30 27 23 31 19 15 19 12 10 12 15 13 9 6 12 7 8 2 2 3 2 2 5 3 1 6 8 6 12
54 51 50 49 51 48 39 36 38 32 26 28 26 32 28 25 23 20 13 16 21 10 20 12 9 5 8 6 8 6 6 10 8 7 3 6 5 3 2 4 3 16 3
59 59 57 57 54 52 46 34 41 30 31 20 28 24 23 22 24 23 22 21 15 18 12 14 4 7 5 7 9 5 6 6 4 7 7 1 6 2 4 6 3 2 13
62 59 58 58 59 51 50 42 42 34 31 27 24 21 20 20 23 22 21 18 21 10 15 6 6 7 4 3 5 1 6 6 10 9 9 5 1 2 3 1 6 7 4
61 60 58 62 60 56 51 48 42 37 30 25 24 22 30 26 25 23 21 19 16 11 16 13 8 8 6 6 4 3 2 3 4 7 12 6 5 6 5 8 7 6 13
65 63 61 64 65 61 58 51 53 41 41 30 29 24 20 21 21 25 24 24 17 15 15 9 12 11 12 14 9 7 4 4 2 7 14 14 12 16 11 13 13 12 13
Wind_Direction_850mb
117 123 131 133 136 138 140 136 130 127 125 126 124 118 116 109 105 100 94 90 87 81 78 65 53 46 41 37 40 49 59 66 61 52 53 43 52 65 81 114 108 113 115
125 128 130 132 136 138 138 135 132 128 127 127 124 122 117 107 102 96 92 86 80 75 66 55 43 39 38 34 39 45 51 64 68 57 51 45 38 57 93 131 90 127 127
129 131 129 131 133 136 137 133 129 131 130 131 129 125 112 104 94 91 88 83 74 64 53 44 32 30 32 31 42 46 47 54 73 74 61 93 354 46 94 125 132 140 121
135 131 129 130 131 138 140 137 134 133 134 135 133 126 121 106 90 88 80 72 60 48 42 36 26 20 21 31 28 40 49 56 87 84 40 73 67 29 96 97 118 109 116
140 136 142 133 130 134 140 142 136 139 141 139 136 135 129 108 91 78 71 60 42 33 34 26 18 18 14 24 31 26 38 51 66 103 88 97 73 39 97 103 110 114 117
138 145 144 140 136 136 136 140 143 143 141 144 142 142 133 124 97 80 63 41 26 29 26 16 12 17 18 24 34 33 35 53 53 71 104 93 127 65 101 124 132 131 138
142 147 148 144 145 144 143 145 144 144 151 153 152 145 135 114 92 74 43 20 25 30 13 11 16 19 28 27 32 41 44 66 72 110 138 130 305 84 98 110 132 127 134
141 147 158 147 147 148 145 144 147 151 152 153 153 149 137 106 83 48 12 8 17 13 10 16 21 27 34 31 26 36 45 51 21 76 103 148 71 85 106 118 126 140 140
143 146 145 146 151 154 154 151 147 144 147 154 160 158 156 140 80 9 7 12 5 7 8 11 19 21 33 34 23 26 51 57 81 16 31 153 48 80 109 123 137 144 145
148 147 147 151 148 152 167 166 152 153 156 162 166 175 170 150 350 5 329 345 340 342 359 5 14 22 33 35 24 22 49 48 44 354 355 339 342 110 108 134 146 158 162
149 154 157 155 156 158 166 174 177 175 177 172 175 181 163 250 338 334 314 303 319 317 343 0 18 46 40 24 15 36 27 28 326 90 319 337 337 10 158 171 162 164 178
161 163 158 167 165 161 167 184 176 189 191 186 203 263 210 230 249 244 271 315 318 338 6 9 20 32 26 2 5 356 360 346 315 99 258 317 319 320 279 218 199 190 191
170 165 169 185 157 169 173 178 179 194 196 213 214 220 242 246 251 290 331 313 326 348 309 5 334 350 9 319 318 328 326 336 334 325 352 321 308 291 251 224 222 211 208
171 172 175 174 176 179 181 182 192 198 204 217 232 237 205 252 256 256 264 265 276 268 325 275 304 311 298 313 317 316 319 317 300 292 306 305 304 286 235 234 215 214 213
179 180 184 185 187 190 185 195 205 204 212 221 227 249 216 251 244 281 276 275 288 308 281 316 290 298 307 299 283 311 310 307 302 294 276 296 308 273 254 226 227 223 219
184 186 187 190 193 191 198 202 209 211 225 223 232 236 265 227 261 262 290 283 288 281 267 278 295 271 292 294 341 326 304 302 294 290 271 289 306 309 269 250 237 239 233
190 190 192 194 199 201 205 216 212 220 227 233 224 236 245 251 255 245 260 262 278 277 278 279 271 320 339 331 304 304 304 306 302 292 288 262 284 302 308 276 252 242 240
195 195 195 200 204 208 210 217 215 226 227 226 241 239 237 251 248 254 272 272 274 275 296 267 296 310 313 298 301 308 307 315 304 319 336 262 259 268 297 289 281 268 256
200 200 199 200 203 207 212 215 221 226 226 239 233 244 260 263 257 255 261 264 261 261 262 291 289 305 303 303 300 301 308 316 330 34 12 39 5 357 255 248 295 287 260
203 202 203 204 204 207 213 213 212 222 233 236 246 241 245 245 242 246 256 252 262 276 283 262 290 292 299 305 300 273 286 308 354 31 46 48 19 46 330 311 298 281 282
203 204 205 205 211 206 213 216 213 222 229 229 241 239 265 265 234 241 240 269 281 263 261 307 295 297 316 289 286 254 226 137 131 145 46 346 11 0 12 9 14 50 257
204 205 206 207 208 211 214 209 216 220 230 239 244 233 238 243 254 266 243 241 267 262 283 270 288 286 295 271 318 279 234 167 186 131 19 4 16 19 16 6 341 199 274
206 206 208 209 210 210 204 214 215 215 223 220 232 247 257 231 232 237 229 208 233 246 272 293 291 280 291 304 313 323 280 84 138 174 140 310 27 16 42 30 118 357 184
209 209 209 212 210 212 213 206 218 213 221 226 229 227 213 213 215 227 221 230 233 213 226 268 275 193 262 286 322 73 292 345 323 151 204 215 221 357 323 98 332 327 65
210 209 210 211 212 206 214 204 217 209 216 213 212 216 213 231 201 209 212 215 232 205 227 202 231 219 226 229 243 258 282 272 337 328 308 137 307 234 294 325 278 269 309
211 210 209 209 213 209 206 217 203 216 207 209 210 214 212 206 209 204 204 214 216 198 215 227 232 226 202 207 197 222 237 275 287 303 294 296 303 287 266 287 287 282 276